www.pogodaiklimat.ru

Погода и климат >> Архив погоды >> Норвегия >> Стрын-Крокен


ПОГОДА в Стрын-Крокене

  • Прогноз погоды в Стрын-Крокене
  • Монитор погоды в Стрын-Крокене

АРХИВ ПОГОДЫ в Стрын-Крокене

Время (UTC), дата Ветер
(напр.,м/с)
 
Видим.   Явления Облачность Т
(С)
Тd
(С)
f
(%)
Тe
(С)
Тes
(С)
Комфортность P
(гПа)
Po
(гПа)
Тmin
(С)
Tmax
(С)
R
(мм)
R24
(мм)
S
(см)
07 18.03 СЗ 2
{5}
н/о н/о +0.4 -0.7 92 -3 -3 1001.7 976.2 0.6
08 18.03 СЗ 4
{10}
н/о н/о +1.2 -2.5 76 -4 -4 1003.3 977.8
09 18.03 СЗ 3
{9}
н/о н/о +2.8 -4.6 58 -1 -1 1004.6 979.3
10 18.03 СЗ 2
{8}
н/о н/о +2.1 -4.8 60 -1 -1 1006.1 980.7
11 18.03 СЗ 3
{7}
н/о н/о +2.9 -5.9 52 -1 -1 1007.1 981.7
12 18.03 СЗ 3
{10}
н/о н/о +3.0 -4.2 59 -1 -1 1008.4 983.0
13 18.03 СЗ 2
{9}
н/о н/о +3.6 -4.3 56 +1 +1 1009.4 984.0
14 18.03 СЗ 2
{8}
н/о н/о +3.5 -3.3 61 +1 +1 1010.2 984.8 0.1
15 18.03 Ю 1
{6}
н/о н/о +2.7 -1.6 73 +1 +1 1011.5 986.0 0.1
16 18.03 СЗ 2
{5}
н/о н/о +3.8 -4.9 53 +2 +2 1012.3 986.9
17 18.03 З 1
{4}
н/о н/о +2.6 -6.2 52 +2 +2 1013.6 988.0
18 18.03 Ю 1
{9}
н/о н/о +0.8 -4.6 67 -1 -1 1014.6 988.8 +0.3 +4.0 0.8
19 18.03 ЮВ 1
{2}
н/о н/о -0.2 -4.0 76 -2 -2 1015.9 990.0
20 18.03 СЗ 1
{2}
н/о н/о +0.8 -4.0 70 -1 -1 1016.7 990.9
21 18.03 З 2
{3}
н/о н/о +0.6 -2.9 77 -3 -3 1017.5 991.6
22 18.03 Ю 1
{3}
н/о н/о -1.3 -3.4 86 -3 -3 1018.1 992.0
23 18.03 ЮВ 1
{2}
н/о н/о -1.8 -3.6 87 -4 -4 1018.5 992.4
00 19.03 Ю 1
{3}
н/о н/о -1.1 -2.8 88 -3 -3 1018.8 992.7
01 19.03 Ю 1
{2}
н/о н/о -2.2 -3.7 89 -4 -4 1019.3 993.1
02 19.03 Ю 1
{1}
н/о н/о -3.3 -4.5 91 -6 -6 1019.9 993.6
03 19.03 Ю 1
{2}
н/о н/о -3.7 -4.7 93 -6 -6 1020.2 993.9
04 19.03 ЮВ 1
{3}
н/о н/о -2.8 -3.7 94 -5 -5 1019.9 993.7
05 19.03 Ю 1
{2}
н/о н/о -3.1 -4.1 93 -5 -5 1020.1 993.8
06 19.03 ЮВ 1
{3}
н/о н/о -3.5 -4.5 93 -6 -6 1020.5 994.2 -3.8 +1.0
07 19.03 ЮВ 2
{4}
н/о н/о -2.2 -3.8 89 -6 -6 1019.8 993.6
08 19.03 ЮВ 2
{4}
н/о н/о +0.6 -3.7 73 -3 -3 1019.7 993.8
09 19.03 В 2
{5}
н/о н/о +2.1 -4.0 64 -1 -1 1019.4 993.6
10 19.03 ЮВ 2
{5}
н/о н/о +3.3 -5.6 52 +1 +1 1019.1 993.4
11 19.03 ЮВ 2
{5}
н/о н/о +3.8 -6.7 46 +2 +2 1018.5 992.9
12 19.03 ЮВ 2
{5}
н/о н/о +5.1 -7.7 39 +3 +3 1017.7 992.2
13 19.03 ЮВ 3
{6}
н/о н/о +5.4 -6.4 42 +3 +3 1017.0 991.6
14 19.03 ЮВ 3
{6}
н/о н/о +5.8 -10.8 29 +4 +4 1016.3 990.9
15 19.03 В 2
{7}
н/о н/о +5.9 -11.1 28 +4 +4 1015.8 990.5
16 19.03 ЮВ 3
{8}
н/о н/о +5.0 -7.4 40 +2 +2 1015.5 990.1
17 19.03 ЮВ 2
{8}
н/о н/о +5.1 -5.2 47 +3 +3 1014.8 989.4 0.2
18 19.03 ЮВ 3
{9}
н/о н/о +5.1 -2.5 58 +2 +2 1013.6 988.3 -3.6 +6.2 0.2
19 19.03 В 3
{9}
н/о н/о +5.6 -2.2 57 +3 +3 1012.8 987.5 0.3
20 19.03 В 3
{11}
н/о н/о +5.4 -1.5 61 +2 +2 1012.0 986.7
21 19.03 СВ 2
{9}
н/о н/о +3.7 +0.4 79 +1 +1 1011.3 985.9 0.5
22 19.03 ЮЗ 1
{6}
н/о н/о +3.6 +1.2 84 +2 +2 1011.1 985.7 1
23 19.03 З 2
{6}
н/о н/о +3.1 +1.2 87 0 0 1010.9 985.4 1
00 20.03 ЮЗ 2
{11}
н/о н/о +3.6 +2.7 94 +1 +1 1011.4 986.0 0.9
01 20.03 З 1
{5}
н/о н/о +2.5 +1.3 92 +1 +1 1011.6 986.1 0.1
02 20.03 С 1
{3}
н/о н/о +2.8 +2.4 97 +1 +1 1011.5 986.0 1
03 20.03 З 1
{6}
н/о н/о +2.4 +2.3 99 +1 +1 1012.0 986.4 0.3
04 20.03 Ю 1
{6}
н/о н/о +1.3 +1.0 98 -1 -1 1012.2 986.5 0.5
05 20.03 Ю 1
{3}
н/о н/о +1.6 +1.6 100 -1 -1 1012.3 986.7 0.4
06 20.03 В 1
{6}
н/о н/о +1.8 +1.8 100 -0 -0 1013.3 987.7 +1.1 +5.8 7
07 20.03 С 1
{4}
н/о н/о +2.5 +2.5 100 +1 +1 1013.8 988.2 0.3
08 20.03 З 1
{3}
н/о н/о +3.2 +3.2 100 +1 +1 1014.3 988.8 0.3
09 20.03 В 1
{4}
н/о н/о +3.1 +3.1 100 +1 +1 1015.5 989.9 0.1
10 20.03 С 1
{3}
н/о н/о +4.4 +3.8 96 +3 +3 1016.6 991.1 0.5
11 20.03 В 1
{6}
н/о н/о +6.2 +4.5 89 +5 +5 1016.9 991.6 0.2
12 20.03 СВ 1
{6}
н/о н/о +6.9 +4.1 82 +6 +6 1017.5 992.2
13 20.03 В 1
{3}
н/о н/о +5.9 +2.4 78 +5 +5 1018.3 992.9 0.2
14 20.03 Ю 1
{4}
н/о н/о +5.8 +1.5 74 +5 +5 1018.6 993.2
15 20.03 ЮЗ 2
{6}
н/о н/о +6.4 +0.3 65 +4 +4 1019.1 993.7
16 20.03 штиль 0
{6}
н/о н/о +4.6 +2.1 84 +4 +4 1018.9 993.4 0.1
17 20.03 Ю 2
{5}
н/о н/о +3.6 +2.1 90 +1 +1 1019.0 993.4 0.9
18 20.03 З 1
{7}
н/о н/о +3.8 +1.5 85 +2 +2 1017.8 992.2 +1.7 +7.2 3
19 20.03 В 1
{5}
н/о н/о +3.5 +1.6 87 +2 +2 1017.3 991.7
20 20.03 В 2
{6}
н/о н/о +4.2 +1.8 84 +1 +1 1016.0 990.5
21 20.03 В 1
{6}
н/о н/о +3.5 +1.9 89 +2 +2 1015.5 990.0 0.3
22 20.03 В 2
{5}
н/о н/о +3.8 +2.6 92 +1 +1 1014.3 988.8 0.7
23 20.03 ЮВ 1
{5}
н/о н/о +3.5 +2.3 92 +2 +2 1013.7 988.2 2
00 21.03 ЮВ 1
{6}
н/о н/о +3.3 +2.6 95 +2 +2 1012.3 986.8 4
01 21.03 Ю 1
{2}
н/о н/о +3.0 +2.9 99 +1 +1 1011.5 986.0 2
02 21.03 Ю 1
{3}
н/о н/о +3.5 +3.4 99 +2 +2 1010.8 985.4 5
03 21.03 Ю 1
{3}
н/о н/о +4.0 +4.0 100 +2 +2 1010.4 985.0 3
04 21.03 В 1
{3}
н/о н/о +4.5 +4.5 100 +3 +3 1010.3 985.0 2
05 21.03 З 1
{3}
н/о н/о +4.0 +4 +4 1012.0 986.6 0.8
06 21.03 СЗ 1
{4}
н/о н/о +4.3 +5 +5 1013.3 987.9 +2.9 +4.5 20
07 21.03 СЗ 3
{9}
н/о н/о +5.1 +4.4 95 +1 +1 1014.2 988.8
08 21.03 ЮВ 1
{7}
н/о н/о +5.1 +4.5 96 +4 +4 1015.4 990.0
09 21.03 С 2
{5}
н/о н/о +5.0 +4.0 93 +2 +2 1016.5 991.1
10 21.03 СЗ 3
{6}
н/о н/о +3.8 +3.1 95 -0 -0 1017.8 992.2 1
11 21.03 СВ 1
{5}
н/о н/о +4.6 +4.0 96 +3 +3 1018.7 993.2 0.1
12 21.03 СЗ 1
{9}
н/о н/о +5.4 +4.2 92 +4 +4 1019.5 994.0
13 21.03 СЗ 3
{7}
н/о н/о +4.3 +3.0 91 +1 +1 1021.1 995.5 0.1
14 21.03 СЗ 3
{8}
н/о н/о +3.4 +1.1 85 -1 -1 1022.5 996.8 0.3
15 21.03 З 1
{10}
н/о н/о +3.8 +0.3 78 +3 +3 1023.6 997.9
17 21.03 С 1
{4}
н/о н/о +2.9 +0.8 86 +1 +1 1025.9 1000.0
18 21.03 Ю 1
{10}
н/о н/о +0.2 -1.1 91 -2 -2 1026.4 1000.3 +0.2 +6.0 2
19 21.03 ЮВ 1
{2}
н/о н/о -0.2 -0.4 99 -2 -2 1026.2 1000.0
20 21.03 ЮВ 1
{3}
н/о н/о +0.5 -0.2 95 -2 -2 1027.0 1000.9
21 21.03 ЮВ 1
{2}
н/о н/о +0.1 -0.2 98 -2 -2 1027.9 1001.7
22 21.03 Ю 2
{4}
н/о н/о +0.8 +0.4 97 -3 -3 1027.6 1001.5
23 21.03 ЮВ 2
{4}
н/о н/о +0.5 -0.1 96 -3 -3 1027.6 1001.5
01 22.03 ЮВ 1
{3}
н/о н/о -0.4 -1.4 93 -3 -3 1026.6 1000.4
02 22.03 Ю 1
{3}
н/о н/о -0.4 -1.0 96 -3 -3 1026.3 1000.1
03 22.03 ЮВ 1
{3}
н/о н/о -0.1 -0.8 95 -2 -2 1025.6 999.5
04 22.03 ЮВ 1
{3}
н/о н/о +0.3 -1.3 89 -2 -2 1025.0 998.9
05 22.03 ЮВ 1
{4}
н/о н/о +0.8 -1.4 85 -1 -1 1024.1 998.1
06 22.03 ЮВ 2
{4}
н/о н/о +1.1 -1.5 83 -2 -2 1022.6 996.6 -1.1 +2.1
07 22.03 ЮВ 2
{4}
н/о н/о +2.2 -2.5 71 -1 -1 1020.5 994.7
08 22.03 ЮВ 2
{5}
н/о н/о +5.3 -3.0 55 +3 +3 1019.1 993.6
09 22.03 ЮВ 4
{11}
н/о н/о +7.5 -1.4 53 +5 +5 1017.7 992.5 0.1
10 22.03 В 1
{10}
н/о н/о +6.9 +0.8 65 +6 +6 1016.2 990.9 0.1
11 22.03 ЮВ 2
{5}
н/о н/о +8.4 +1.1 60 +7 +7 1014.8 989.7
12 22.03 В 4
{11}
н/о н/о +9.7 +1.9 58 +7 +7 1012.6 987.7
13 22.03 СВ 2
{9}
н/о н/о +10.9 +3.0 58 +10 +10 1011.2 986.4
14 22.03 СВ 3
{10}
н/о н/о +9.1 +3.9 70 +7 +7 1010.6 985.7 0.1
15 22.03 С 2
{7}
н/о н/о +8.4 +4.1 74 +7 +7 1009.1 984.2 0.3
16 22.03 В 3
{7}
н/о н/о +8.4 +4.1 74 +6 +6 1008.8 983.8 0.4
17 22.03 С 3
{9}
н/о н/о +8.0 +4.4 78 +5 +5 1007.7 982.8 0.3
18 22.03 С 2
{10}
н/о н/о +6.6 +4.6 87 +4 +4 1007.5 982.4 +1.1 +10.9 2
19 22.03 СЗ 3
{7}
н/о н/о +6.0 +4.0 87 +3 +3 1007.2 982.1 3
20 22.03 СЗ 2
{6}
н/о н/о +5.1 +3.3 88 +2 +2 1007.0 981.8 4
21 22.03 ЮЗ 1
{8}
н/о н/о +4.0 +2.5 90 +3 +3 1007.5 982.2 5
22 22.03 ЮЗ 1
{6}
н/о н/о +3.6 +2.1 90 +2 +2 1007.2 981.9 5
23 22.03 Ю 1
{4}
н/о н/о +2.8 +1.5 91 +1 +1 1007.0 981.6 1
00 23.03 ЮВ 1
{11}
н/о н/о +3.5 +1.6 87 +2 +2 1005.9 980.6 1
01 23.03 З 4
{20}
н/о н/о +3.1 0.0 80 -2 -2 1006.9 981.5 1
02 23.03 ЮЗ 1
{12}
н/о н/о +2.1 0.0 86 0 0 1006.6 981.2 1
03 23.03 З 3
{13}
н/о н/о +2.8 +0.1 82 -1 -1 1006.1 980.7 0.7
04 23.03 ЮЗ 2
{11}
н/о н/о +2.4 -1.4 76 -1 -1 1006.2 980.8 0.3
05 23.03 З 4
{11}
н/о н/о +3.0 -2.1 69 -1 -1 1006.4 981.0 0.4
06 23.03 З 3
{20}
н/о н/о +2.0 -1.1 80 -2 -2 1006.7 981.2 +1.8 +6.6 24
07 23.03 З 4
{11}
н/о н/о +2.3 -2.0 73 -2 -2 1006.5 981.1 0.4
08 23.03 С 1
{15}
н/о н/о +0.3 -0.8 92 -2 -2 1006.7 981.1 3
09 23.03 СВ 1
{4}
н/о н/о +0.7 +0.1 96 -1 -1 1007.3 981.7 2
10 23.03 ЮЗ 2
{12}
н/о н/о +2.1 -0.1 85 -1 -1 1007.8 982.3 0.3
11 23.03 З 3
{11}
н/о н/о +2.9 -1.8 71 -1 -1 1007.7 982.3 0.3
12 23.03 З 3
{15}
н/о н/о +2.9 -2.0 70 -1 -1 1008.1 982.7 0.3
13 23.03 З 2
{12}
н/о н/о +2.8 -1.9 71 0 0 1008.8 983.4 0.2
14 23.03 З 4
{11}
н/о н/о +2.6 -2.3 70 -2 -2 1009.5 984.1 0.4
15 23.03 З 7
{15}
н/о н/о +0.4 -1.8 85 -7 -7 1011.2 985.5 1
16 23.03 СЗ 3
{13}
н/о н/о +0.7 -0.7 90 -4 -4 1011.8 986.1 0.7
17 23.03 З 4
{13}
н/о н/о +2.0 -1.8 76 -3 -3 1012.5 986.9 0.2
18 23.03 З 4
{15}
н/о н/о +1.1 -1.9 80 -4 -4 1013.6 987.9 +0.1 +4.0 9
19 23.03 З 3
{10}
н/о н/о +2.2 -2.1 73 -2 -2 1014.4 988.8 0.4
20 23.03 З 4
{10}
н/о н/о +0.8 -1.6 84 -4 -4 1016.2 990.4 0.5
21 23.03 СЗ 2
{8}
н/о н/о +0.3 -1.3 89 -3 -3 1017.1 991.2 0.2
22 23.03 З 3
{11}
н/о н/о +2.1 -2.6 71 -2 -2 1017.5 991.8 0.4
23 23.03 Ю 1
{11}
н/о н/о +0.5 -1.4 87 -1 -1 1017.4 991.5 0.4
00 24.03 СВ 1
{11}
н/о н/о +0.3 -1.0 91 -2 -2 1016.9 991.0 0.2
01 24.03 ЮВ 2
{4}
н/о н/о +0.3 -0.3 96 -3 -3 1016.2 990.3
02 24.03 ЮВ 1
{4}
н/о н/о +0.2 -0.2 97 -2 -2 1015.9 990.0 2
03 24.03 ЮВ 2
{5}
н/о н/о +0.1 0.0 99 -4 -4 1014.5 988.7 2
04 24.03 ЮВ 1
{4}
н/о н/о +0.1 +0.1 100 -2 -2 1013.9 988.1 3
05 24.03 В 1
{3}
н/о н/о +0.1 +0.1 100 -2 -2 1013.3 987.5 3
06 24.03 ЮВ 1
{5}
н/о н/о +0.3 1012.4 986.6 -0.1 +2.4 13 8
07 24.03 Ю 2
{4}
н/о н/о +0.4 -1 -1 1012.1 986.4 0.8
08 24.03 ЮВ 1
{6}
н/о н/о +0.7 +1 +1 1011.3 985.6 0.8
09 24.03 ЮВ 2
{5}
н/о н/о +1.1 +1.1 100 -3 -3 1010.9 985.3 0.3
10 24.03 Ю 1
{5}
н/о н/о +1.7 +1.7 100 -0 -0 1010.3 984.7 0.6
11 24.03 ЮВ 1
{4}
н/о н/о +2.4 +2.1 98 +1 +1 1009.4 983.9 0.5
12 24.03 ЮВ 2
{6}
н/о н/о +2.7 +2.0 95 -1 -1 1008.5 983.1 0.6
13 24.03 В 2
{8}
н/о н/о +2.9 +1.9 93 -0 -0 1007.9 982.5 1
14 24.03 В 2
{8}
н/о н/о +3.1 +1.3 88 0 0 1006.8 981.4 0.4
15 24.03 В 2
{8}
н/о н/о +3.4 +1.1 85 0 0 1005.9 980.6 1
16 24.03 ЮВ 1
{4}
н/о н/о +2.7 +1.7 93 +1 +1 1005.0 979.6 0.2
17 24.03 ЮВ 1
{3}
н/о н/о +2.4 +2.0 97 +1 +1 1004.7 979.3 0.2
18 24.03 ЮВ 1
{8}
н/о н/о +1.8 +1.7 99 -0 -0 1004.8 979.4 +0.3 +3.6 7
19 24.03 ЮВ 1
{2}
н/о н/о +1.3 +1.3 100 -1 -1 1005.1 979.6
20 24.03 ЮВ 1
{2}
н/о н/о +1.1 +1.1 100 -1 -1 1005.6 980.1
21 24.03 штиль 0
{2}
н/о н/о +0.9 +0.9 100 -1 -1 1006.2 980.7
22 24.03 ЮВ 1
{1}
н/о н/о +0.8 +1 +1 1007.2 981.6
23 24.03 СВ 1
{1}
н/о н/о +0.7 +1 +1 1008.3 982.7
00 25.03 штиль 0
{2}
н/о н/о +0.9 +2 +2 1009.5 983.9
01 25.03 ЮЗ 1
{1}
н/о н/о +1.0 +1 +1 1010.8 985.1
02 25.03 СЗ 1
{1}
н/о н/о +0.8 +1 +1 1011.8 986.1
03 25.03 СЗ 2
{4}
н/о н/о +1.1 -1 -1 1013.1 987.4
04 25.03 СЗ 3 н/о н/о +0.8 1014.5 988.7
05 25.03 ЮЗ 1
{4}
н/о н/о -0.3 -1 -1 1016.1 990.2
06 25.03 СЗ 2
{6}
н/о н/о -0.3 -2 -2 1017.2 991.3 -0.8 +1.8 3
07 25.03 ЮВ 1
{2}
н/о н/о +0.2 0 0 1018.2 992.3

 

Местоположение метеостанции Стрын-Крокен (Норвегия): широта 61.92 долгота 6.56 высота над уровнем моря 208 м.

В архиве по умолчанию представлена погода в Стрын-Крокене за последнюю неделю. Архивные данные за месяц целиком и за предыдущие месяцы, начиная с января 2011 года, Вы можете получить, выбрав интересующий диапазон дат из раскрывающегося списка и нажав кнопку "Ввод!".


*Определитесь, кто Вы:
робот инопланетянин человек

Внимание! Время в таблицах - всемирное. Для получения местного времени необходимо прибавить поправку, которая равна 1 ч.

Смотрите также архив погоды в соседних городах и на ближайших метеорологических станциях:

Погода в Сандан аэропорту (Норвегия) (26 км)
Погода в Аэропорту Орста-Волда (Норвегия) (38 км)
Погода в Фиске (Норвегия) (55 км)
Погода в Тафьорде (Норвегия) (57 км)
Погода во Фьерлэнде (Норвегия) (57 км)
Погода в Гротли (Норвегия) (59 км)
Погода во Флурё (Норвегия) (60 км)
Погода в Олесунне (Норвегия) (64 км)
Погода в Брате (Норвегия) (69 км)
Погода в Лебергсфелле (Норвегия) (69 км)

Пояснения к столбцам:

Ветер - указаны скорость ветра в м/с - средняя за 10 мин, порывы в срок и между сроками (в фигурных скобках) и направление, откуда дует ветер: С - северный, СВ - северо-восточный, В - восточный, ЮВ - юго-восточный, Ю - южный, ЮЗ - юго-западный, З - западный, СЗ - северо-западный.
Видимость - горизонтальная дальность видимости в метрах или километрах. При видимости от 1 до 10 км при отсутствии осадков обычно наблюдается дымка, при ухудшении видимости до 1 км и менее - туман. В сухую погоду видимость может ухудшаться дымом, пылью или мглою.
Явления - указаны атмосферные явления, наблюдавшиеся в срок или в последний час перед сроком; фигурными скобками обозначены явления, наблюдавшиеся между сроками (за 1-3 часа до срока); квадратными скобками обозначены град или гололедные отложения с указанием их диаметра в мм.
Облачность - указаны через наклонную черту общая и нижняя облачность в баллах и высота нижней границы облаков в метрах; квадратными скобками обозначены формы облаков: Ci - перистые, Cs - перисто-слоистые, Cc - перисто-кучевые, Ac - высококучевые, As - высокослоистые, Sc - слоисто-кучевые, Ns - слоисто-дождевые, Cu - кучевые, Cb - кучево-дождевые. Подробнее классификацию облаков см. в Атласе облаков (PDF).
T - Температура воздуха - температура, измеренная на высоте 2 м над землей.
Td - Температура точки росы - температура, при понижении до которой содержащийся в воздухе водяной пар достигнет насыщения.
f - Относительная влажность воздуха - влажноcть воздуха, измеренная на высоте 2 м над землей.
Te - Эффективная температура - температура, которую ощущает одетый по сезону человек в тени. Характеристика душности погоды. При расчете учитывается влияние влажности воздуха и скорости ветра на теплоощущения человека.
Tes - Эффективная температура на солнце - температура, которую ощущает человек, с поправкой на солнечный нагрев. Характеристика знойности погоды. Зависит от высоты солнца над горизонтом, облачности и скорости ветра. Ночью, в пасмурную погоду, а также при ветре 12 м/с и более поправка равна нулю.
P - Атмосферное давление - приведенное к уровню моря атмосферное давление.
Po - Атмосферное давление - измеренное на уровне метеостанции атмосферное давление.
Tmin - Минимальная температура - минимум температуры воздуха на высоте 2 м над землей.
Tmax - Максимальная температура - максимум температуры воздуха на высоте 2 м над землей.
R - Количество осадков - Количество выпавших осадков за период времени, мм. При наведении курсора мыши на число - период времени, за который выпало указанное количество осадков.
R24 - Количество осадков - Количество выпавших осадков за 24 часа, мм.
S - Снежный покров - Высота снежного покрова, см. При наведении курсора мыши на число - состояние снежного покрова и степень покрытия местности в баллах.